Home > Weather > Grand Junction > Past weeks

Flag for U.S.A. Weather for the Past 2 Weeks in Grand Junction, Colorado, U.S.A.

Now
34 °F

Sunny.


Feels Like: 34 °F
Forecast: 13 / 39 °F
Wind: No wind

Location: Walker Field

Current Time: Feb 8, 2016 at 12:47:27 PM

Latest Report: Feb 8, 2016 at 11:53 AM


Visibility: 10 mi

Pressure: 30.71 "Hg (25.80 "Hg at 1398m altitude)

Humidity: 61%

Dew point: 22 °F

Location of Grand JunctionLocation

Historic Weather in Grand Junction — Graph

°F

Grand Junction Temperature Yesterday

Maximum temperature yesterday: 33 °F (at 3:53 PM)
Minimum temperature yesterday: 9 °F (at 4:53 AM)
Average temperature yesterday: 19 °F

High & Low Weather Summary for the Past Weeks

 TemperatureHumidityPressure
High42 °F (Jan 30, 1:53 PM)100% (Jan 25, 12:53 AM)30.85 "Hg (Jan 25, 12:53 AM)
Low0 °F (Feb 6, 6:53 AM)46% (Jan 26, 2:53 PM)29.41 "Hg (Feb 1, 10:00 AM)
Average22 °F83%30.29 "Hg
* Reported Jan 24 10:53 AM — Feb 8 10:53 AM, Grand Junction, Weather by CustomWeather, © 2016

Note: Actual official high and low records may vary slightly from our data, if they occured in-between our weather recording intervals... More about our weather records

Advertising

Grand Junction Weather History for the Previous 24 Hours

 ConditionsComfort  
Time TempWeatherWind HumidityBarometerVisibility
10:53 AM
Mon, Feb 8
29 °FSunny.5 mph69%30.75 "Hg10 mi
9:53 AM22 °FSunny.No wind89%30.76 "Hg10 mi
8:53 AM20 °FSunny.3 mph85%30.74 "Hg10 mi
7:53 AM14 °FSunny.7 mph87%30.76 "Hg10 mi
6:53 AM16 °FClear.5 mph87%30.74 "Hg10 mi
5:53 AM13 °FClear.No wind92%30.73 "Hg10 mi
4:53 AM15 °FClear.7 mph87%30.69 "Hg10 mi
3:53 AM12 °FClear.7 mph92%30.67 "Hg10 mi
2:53 AM14 °FClear.3 mph92%30.69 "Hg10 mi
1:53 AM14 °FClear.6 mph92%30.67 "Hg10 mi
12:53 AM16 °FClear.3 mph92%30.66 "Hg10 mi
11:53 PM
Sun, Feb 7
16 °FClear.3 mph87%30.68 "Hg10 mi
10:53 PM15 °FClear.No wind91%30.69 "Hg10 mi
9:53 PM17 °FClear.5 mph88%30.68 "Hg10 mi
8:53 PM21 °FClear.5 mph81%30.70 "Hg10 mi
7:53 PM19 °FClear.5 mph85%30.71 "Hg10 mi
6:53 PM20 °FClear.3 mph85%30.70 "Hg10 mi
5:53 PM23 °FClear.No wind81%30.66 "Hg10 mi
4:53 PM27 °FSunny.6 mph75%30.64 "Hg10 mi
3:53 PM33 °FSunny.3 mph61%30.60 "Hg10 mi
2:53 PM32 °FSunny.No wind59%30.61 "Hg10 mi
1:53 PM30 °FSunny.5 mph64%30.63 "Hg10 mi
12:53 PM29 °FSunny.No wind64%30.65 "Hg10 mi
Weather by CustomWeather, © 2016

See weather overviewHow to use our weather pages